Location: Unspecified
(0.0000°N, 0.0000°E)
Time: 18:43:06
(UTC+00:00)

CUTE 1.7 + AOD 2 - Pass Details

Date: 24 December 2025
Orbit: 537 x 550 km, 97.8° (Epoch: 19 January)

Event Time Altitude Azimuth Distance (km) Brightness Sun altitude
Exits shadow 03:51:03 10° 185° (S) 1,788 ? -29.2°
Drops below altitude 10° 03:51:05 10° 185° (S) 1,801 ? -29.2°
Sets 03:53:12 0° 187° (S) 2,693 ? -28.7°
